T 2002 Aug. 26.74592 TT                                 Nakano

q   1.0587641            (2000.0)            P               Q

n   0.18106986     Peri.  356.39790     +0.19683252     -0.95949829

a   3.0943678      Node    82.17423     +0.90454121     +0.09841381

e   0.6578415      Incl.   11.73812     +0.37823559     +0.26396543

P   5.44

From 315 observations 1991-2002, mean residual 0".66.

   Nongravitational parameters A1 = +0.34 +/- 0.01, A2 = -0.1407 +/- 0.0001.

Residuals in seconds of arc 

1991/                     960920 711 (3.2-  0.3-)   970423 118  0.5+  0.2-  

910708 372 (0.3+  5.1+)Y  960920 711 (2.8-  0.5-)   970424 118  0.1-  0.0   

910708 372 (3.0-  0.1+)Y  960921 711 (3.3-  0.4-)   970424 118  0.9-  0.4+  

910708 372  1.6-  0.1- Y  960921 711 (3.3-  0.2-)   970424 118  0.7+  0.0   

910708 372 (4.8-  3.7-)Y  960922 711 (4.2-  0.2+)   970424 118  0.1-  0.5+  

910709 372 (4.3-  2.9-)   960922 711 (3.0-  0.0 )   970426 861  0.4+  1.1-  

910709 372  0.8-  1.3-    961002 809  0.2+  0.2+    970427 861  1.4+  0.3-  

910816 657  0.1+  1.1-    961002 809  0.2+  0.1+    970427 861  0.6-  1.2+  

910816 657  0.2-  0.8+    961003 809  0.4+  0.0     970429 950  0.9-  0.2+  

910905 657  0.7+  1.1+    961003 809  0.4+  0.2+    970429 950  0.4-  0.2+  

910905 657  0.7+  1.0+    961003 809  0.4+  0.1+    970429 950  0.6-  0.2+  

911005 056 (0.2-  2.4+)   961004 809  0.4+  0.1+    970429 950  1.6-  0.1+  

911005 056  0.2-  0.1+    961004 360  0.3+  0.2+    970430 967 (6.4+  0.2-) 

911008 056  0.4-  1.6-    961004 360  0.1-  0.1+    970430 967  0.5-  0.2+  

911017 056  1.1+  1.7-    961004 360  0.1-  0.9+    970501 967 (2.4+  0.1-) 

911017 056 (2.5+  0.5-)   961011 711  0.2+  0.9+    970501 967  0.1+  0.2+  

911109 900 (9.1+  3.8+)   961011 711  1.1+  0.8+    970501 967 (4.2+  0.3+) 

911109 900 (5.2-  0.1+)   961012 711  0.0   0.4+    970501 967  0.3+  0.4-  

911110 411 (6.3+  1.5+)   961012 711  1.0+  1.1+    970503 118  0.7+  0.1+  

911110 411  0.5+  0.3-    961016 360  1.0+  0.2-    970503 118  1.3+  0.0   

911206 411 (3.7+  0.9+)   961016 360  0.0   0.4-    970504 360  0.2-  0.3+  

1995/                     961016 360  0.8+  0.3-    970504 360  0.1+  0.0   

950626 809  0.8+  1.3-    961101 809  0.6+  0.2+    970504 118  0.4+  0.3+  

1996/                     961102 809  0.3+  0.1+    970504 118  0.7+  0.0   

960320 809  0.5-  0.3-    961102 809  0.3+  0.6+    970509 950  0.8-  0.5+  

960425 809  0.9+  0.2+    961103 809  0.6+  0.1+    970509 950  0.9-  0.4+  

960425 809  1.6+  0.9+ Y  961104 809  0.2+  0.2-    970509 950  1.1-  0.3+  

960425 809  0.6+  1.4- Y  961104 809  0.1+  0.3-    970509 950  0.8-  0.4+  

960425 809  0.3-  0.1+    961105 809  0.2+  0.7-    970509 950 (2.3-  0.4+) 

960425 809  0.0   0.1+    961105 809  0.2+  0.2-    970509 950  0.3-  0.4+  

960425 809  0.7-  0.3+    961118 711  2.1+  0.6+    970509 950  1.0-  0.5+  

960511 809  0.1+  0.1+    961118 711  1.8+  0.9+    970509 950 (4.7+  0.1+) 

960511 809  0.3-  0.1-    961203 360  1.8+  0.2+    970509 950  1.1-  0.3+  

960511 809  0.1-  0.2-    961203 360 (2.3+  0.5+)   970509 950 (4.4+  0.3+) 

960511 809  0.4-  0.4-    961205 711 (3.1+  1.3+)   970509 950  1.0-  0.3+  

960512 809  0.4-  0.0     961205 711 (2.9+  0.6+)   970509 950  0.8-  0.2+  

960512 809  0.1-  0.2-    961206 809  0.5+  0.4-    970509 950  0.8-  0.1+  

960512 809  0.1-  0.1-    961206 809  1.4-  1.2-    970509 950  0.9-  0.3+  

960512 809  0.1-  0.1-    961206 897  2.1+  0.6-    970509 950  1.0-  0.3+  

960513 809  0.3+  0.0     961206 897 (2.8+  1.2-)   970510 118  1.3+  0.2+  

960513 809  0.1+  0.1-    961206 897  1.9+  2.0-    970510 118  1.2+  0.2+  

960513 809  0.1+  0.2-    961207 809  0.3+  0.4-    970510 950  0.6-  0.3+  

960513 809  0.1+  0.4-    961208 809  0.1-  0.3-    970510 950  0.0   0.4+  

960613 568  0.5-  0.6+    961208 809  0.8+  0.4-    970510 950  0.3+  0.5+  

960613 568  0.5-  1.0+    961209 809  0.1+  0.4-    970510 950  0.1-  0.4+  

960613 568  0.4-  0.7+    961210 809  0.6+  0.1-    970510 950  1.1-  0.4+  

960613 568  0.2-  0.4+    961211 809  0.0   0.5-    970510 950  1.1-  0.4+  

960614 568  0.7-  0.8+    961227 867  1.2+  0.6+    970510 950  0.9-  0.3+  

960614 568  0.4-  0.7+    961227 867  1.3+  1.2+    970511 950  0.6-  0.4+  

960615 675  0.6-  0.1+    961228 360  1.0-  1.3+    970511 950  1.0-  0.4+  

960615 675  0.6-  0.1+    961228 360  1.2-  1.0+    970511 950  0.5-  0.5+  

960615 675  0.6-  0.1+    961230 897 (3.1+  1.6+)   970511 950  0.7-  0.5+  

960615 675  0.6-  0.0     961230 897 (0.6+  2.8+)   970511 950  0.1+  0.3+  

960615 675  0.5-  0.1-    1997/                     970511 950  0.7-  0.6+  

960616 675  0.6-  0.1+    970103 897  1.1+  0.1+    970511 950  0.8-  0.5+  

960616 675  0.4-  0.1+    970103 897  1.2+  0.9+    970511 950  0.5-  0.3+  

960616 675  0.5-  0.1+    970109 954  0.5+  0.2+    970512 950  0.3-  0.7+  

960617 675  0.8-  0.1+    970109 954  0.2+  0.1+    970512 950  0.7-  0.7+  

960617 675  0.8-  0.0     970109 954  0.6+  0.4+    970512 950  0.9-  0.7+  

960617 675  0.7-  0.1-    970110 954  0.8-  0.1+    970512 950  0.9-  0.6+  

960617 675  0.7-  0.1-    970110 954  0.4+  0.8+    970512 950  0.2-  0.6+  

960618 809  0.2-  0.5-    970110 954  0.5-  0.5+    970512 950  0.2+  0.3+  

960618 809  0.2-  0.2+    970110 954  2.1-  0.3-    970512 950  0.0   0.6+  

960618 809  1.1-  0.4+    970112 360  0.6+  0.2+    970512 950 (5.2+  0.5+) 

960619 809  0.3+  0.8-    970112 360  0.3+  0.1+    970514 711  0.1+  0.1+  

960619 809  0.4+  0.7-    970114 627  0.7+  0.5-    970514 711  0.0   0.1+  

960619 809  0.2-  0.7-    970114 627  0.6+  0.3+    970514 118  0.0   0.1+  

960709 809  0.0   0.1+    970114 627  0.2+  0.6+    970514 118  0.2-  0.0   

960709 809  0.1+  0.1-    970126 897  1.3+  0.6+    970517 118  0.7+  0.4-  

960710 809  0.5-  0.6+    970126 897  0.6+  0.5-    970517 118  1.1+  0.4+  

960710 809  0.5-  0.6+    970126 897  0.2+  0.7-    970517 118  0.8+  0.2-  

960711 809  0.2+  0.2+    970208 967 (3.7+  3.9+)   970518 897  2.1+  0.7+  

960711 809  0.5-  0.0     970209 897  0.2-  0.3-    970518 897  0.1+  0.3-  

960712 809  0.1+  0.1-    970209 360  1.3-  0.4-    970519 118  0.5+  0.3+  

960712 809  0.1+  0.0     970209 360  1.3-  0.5-    970519 118  1.6+  0.1-  

960810 421 (2.2-  1.5-)   970211 711  0.2+  0.2-    970519 118  0.8+  0.3+  

960810 360  0.4-  0.2-    970211 711  0.1+  0.4-    970525 360  0.3+  0.0   

960810 360  1.0-  0.3-    970211 950  0.1-  0.9-    970525 360  0.4+  0.1+  

960810 421  1.8-  1.6-    970211 950  1.0+  0.6+    970525 118  1.4+  0.6+  

960810 360  1.0-  0.7+    970212 950  0.9-  0.3+    970525 118  1.8+  0.1+  

960810 421  1.1-  1.5+    970212 950  1.8-  0.1-    970528 897 (2.4+  1.0-) 

960817 568  0.6-  0.1-    970212 950  0.8-  0.1-    970609 118  1.3+  0.2-  

960817 568  0.8-  0.2-    970212 950  0.8+  1.0+    970609 118  1.9+  0.7-  

960817 568  0.9-  0.3-    970212 950  0.1+  0.5+    970627 118 (3.6+  1.3-) 

960817 568  0.7-  0.2-    970212 950  0.3+  0.3+    970627 118 (2.2+  6.3-) 

960817 568  0.7-  0.4-    970212 950  0.3+  0.2-    971230 568  0.2-  0.6+  

960817 568  0.7-  0.3-    970212 950  0.0   0.3-    1999/                   

960818 809  1.2+  0.6+    970212 950  0.5-  0.3-    990517 309  0.2-  0.1-  

960818 809  0.5-  0.1+    970212 950  1.2-  1.3-    990517 309  0.8-  0.0   

960819 809  0.8-  0.4-    970213 711  0.3+  0.6-    990517 309  0.3-  0.1+  

960819 809  0.0   0.3+    970213 711  0.6+  0.5-    990517 309  0.7-  0.0   

960819 360  0.4-  0.3-    970214 950  0.7-  0.5-    990517 309  0.2+  0.6-  

960819 360  1.2-  0.1-    970214 950  0.5-  0.1-    990517 309  0.1-  0.5-  

960819 360  0.2-  0.7-    970214 950  1.2-  0.4-    990517 309  0.3+  0.3-  

960820 809 (2.2-  0.1+)   970214 950  0.9-  1.2-    990517 309  0.1-  0.3-  

960820 809  0.1-  0.4+    970214 950  1.6-  1.1+    990517 309  0.2-  0.2-  

960821 809  0.5+  0.8+    970223 897  0.5+  0.7-    990517 309  0.3-  0.2-  

960821 809  0.1+  0.3+    970223 897  0.4+  0.9-    990517 309  0.3-  0.3-  

960822 809  0.1+  0.0     970224 360  0.2-  0.9-    990517 309  0.3-  0.1-  

960822 809  0.2-  0.1+    970224 360  0.3-  0.7-    990517 309  0.6-  0.0   

960823 809  0.3+  0.3+    970302 057 (1.4+  2.5+)   990517 309  0.7-  0.1-  

960823 809  0.0   0.6+    970305 897  0.1+  0.8-    990517 309  0.1-  0.5-  

960910 809  0.2+  0.2+    970305 897  0.7+  0.8-    990517 309  0.3+  0.4-  

960910 809  0.8+  0.1-    970307 360  0.5-  0.0     990517 309  0.3-  0.1+  

960911 809  0.6+  0.1+    970307 360  0.2-  0.0     990517 309  0.2-  0.3-  

960911 809  0.2+  0.1+    970307 605  2.0+  1.1+    2001/                   

960912 809  0.8+  0.4+    970307 605 (2.4+  0.0 )   011209 309  1.0+  0.4-  

960912 809  0.7+  0.0     970309 046  0.1+  0.3-    011209 309  0.3+  0.8-  

960913 809 (2.7-  0.2-)   970309 046  0.9-  0.5-    2002/                   

960913 809  0.9+  0.3-    970309 046  0.0   0.5-    020623 413  0.2+  0.2+  

960914 809 (2.6-  0.3-)   970317 711  1.0+  0.5-    020623 413  0.0   0.3+  

960914 809  0.5+  0.4+    970317 711  1.1+  0.4-    020623 413  0.2+  0.2+  

960915 809 (2.4-  0.1-)   970317 711  1.2+  0.2-    020623 413  0.0   0.2+  

960915 809  0.4+  0.3+    970317 711  1.2+  0.5-    020623 413  0.1-  0.4+  

960916 809  0.8-  0.0     970322 605 (3.4+  0.6+)   020623 413  0.2-  0.6+  

960916 809  0.6+  0.1-    970322 605 (3.2+  0.2-)   020707 349  1.6-  0.3+  

960917 809  0.8+  0.1+    970322 605  1.6+  0.3+    020707 349  1.3+  0.4-  

960919 696  0.8+  0.1-    970423 897  0.1+  0.3-    020707 349  1.1+  0.5-  

960919 696  1.0+  0.1-    970423 897  1.6+  0.6-    020720 349  1.3-  0.8+  

960919 696  0.7+  0.1-    970423 897  1.0+  0.4-    020720 349  1.1-  0.5-  

960919 711 (3.8-  1.0-)   970423 118  0.9+  0.2-    020720 349  0.5+  0.4-  

